| time (UTC) | temp F | wind direction | speed MPH | gust MPH | rain 1hr in | rain 24hr in | rain mn in | humidity % | barometer mb |
| 20260902050009 | 60 | 252 | 0.0 | 0.0 | 0.00 | 0.00 | 0.00 | 52 | 1004.4 |
| 20260902044509 | 60 | 248 | 0.0 | 0.0 | 0.00 | 0.00 | 0.00 | 51 | 1004.2 |
| 20260902043006 | 61 | 268 | 0.0 | 0.0 | 0.00 | 0.00 | 0.00 | 49 | 1004.1 |
| 20260902041512 | 62 | 268 | 0.0 | 0.0 | 0.00 | 0.00 | 0.00 | 48 | 1003.9 |
| 20260902040006 | 63 | 281 | 0.0 | 0.0 | 0.00 | 0.00 | 0.00 | 47 | 1003.6 |
| 20260902034502 | 64 | 246 | 0.0 | 0.0 | 0.00 | 0.00 | 0.00 | 46 | 1003.4 |
| 20260902033002 | 65 | 275 | 0.0 | 0.0 | 0.00 | 0.00 | 0.00 | 46 | 1003.1 |
| 20260902031607 | 66 | 196 | 0.0 | 0.0 | 0.00 | 0.00 | 0.00 | 46 | 1002.8 |
| 20260902030101 | 66 | 165 | 0.0 | 0.0 | 0.00 | 0.00 | 0.00 | 47 | 1002.4 |
| 20260902024559 | 66 | 164 | 0.0 | 0.0 | 0.00 | 0.00 | 0.00 | 49 | 1002.3 |
| 20260902023058 | 67 | 164 | 0.0 | 0.0 | 0.00 | 0.00 | 0.00 | 48 | 1002.2 |
| 20260902021617 | 68 | 164 | 0.0 | 0.0 | 0.00 | 0.00 | 0.00 | 47 | 1002.2 |
| 20260902020057 | 68 | 289 | 0.0 | 0.0 | 0.00 | 0.00 | 0.00 | 44 | 1002.2 |
| 20260902014558 | 69 | 289 | 0.0 | 0.0 | 0.00 | 0.00 | 0.00 | 43 | 1002.3 |
| 20260902013055 | 69 | 289 | 0.0 | 0.0 | 0.00 | 0.00 | 0.00 | 42 | 1002.3 |
| 20260902011557 | 70 | 310 | 0.0 | 0.0 | 0.00 | 0.00 | 0.00 | 41 | 1002.3 |
| 20260902010054 | 70 | 326 | 0.0 | 0.0 | 0.00 | 0.00 | 0.00 | 41 | 1002.3 |
| 20260902004553 | 70 | 298 | 0.0 | 0.0 | 0.00 | 0.00 | 0.00 | 43 | 1002.2 |
| 20260902003053 | 71 | 297 | 0.0 | 0.0 | 0.00 | 0.00 | 0.00 | 42 | 1002.0 |
| 20260902001554 | 72 | 323 | 0.0 | 0.0 | 0.00 | 0.00 | 0.00 | 41 | 1001.9 |
| 20260902000055 | 72 | 310 | 0.0 | 0.0 | 0.00 | 0.00 | 0.00 | 41 | 1001.9 |
| 20260901234549 | 73 | 291 | 0.0 | 0.0 | 0.00 | 0.00 | 0.00 | 42 | 1001.9 |
| 20260901233048 | 72 | 355 | 0.0 | 0.0 | 0.00 | 0.00 | 0.00 | 42 | 1001.9 |
| 20260901231546 | 72 | 320 | 0.0 | 0.0 | 0.00 | 0.00 | 0.00 | 41 | 1002.0 |
| 20260901230051 | 72 | 308 | 0.0 | 0.0 | 0.00 | 0.00 | 0.00 | 42 | 1002.1 |
| 20260901224541 | 71 | 315 | 0.0 | 0.0 | 0.00 | 0.00 | 0.00 | 43 | 1002.2 |
| 20260901223101 | 73 | 300 | 0.0 | 0.0 | 0.00 | 0.00 | 0.00 | 41 | 1002.4 |
| 20260901221541 | 70 | 313 | 0.0 | 0.0 | 0.00 | 0.00 | 0.00 | 42 | 1002.4 |
| 20260901220046 | 69 | 302 | 0.0 | 0.0 | 0.00 | 0.00 | 0.00 | 42 | 1002.6 |
| 20260901214538 | 69 | 319 | 0.0 | 0.0 | 0.00 | 0.00 | 0.00 | 43 | 1002.5 |
| 20260901213036 | 67 | 261 | 0.0 | 0.0 | 0.00 | 0.00 | 0.00 | 45 | 1002.8 |
| 20260901211534 | 68 | 259 | 0.0 | 0.0 | 0.00 | 0.00 | 0.00 | 46 | 1002.6 |
| 20260901210038 | 68 | 218 | 0.0 | 0.0 | 0.00 | 0.00 | 0.00 | 46 | 1002.6 |
| 20260901204533 | 68 | 252 | 0.0 | 0.0 | 0.00 | 0.00 | 0.00 | 46 | 1002.9 |
| 20260901203042 | 67 | 237 | 0.0 | 0.0 | 0.00 | 0.00 | 0.00 | 45 | 1003.1 |
| 20260901201527 | 67 | 271 | 0.0 | 0.0 | 0.00 | 0.00 | 0.00 | 44 | 1002.9 |
| 20260901200030 | 69 | 242 | 0.0 | 0.0 | 0.00 | 0.00 | 0.00 | 41 | 1002.8 |
| 20260901194526 | 72 | 107 | 0.0 | 0.0 | 0.00 | 0.00 | 0.00 | 39 | 1002.5 |
| 20260901193023 | 72 | 179 | 0.0 | 0.0 | 0.00 | 0.00 | 0.00 | 38 | 1002.4 |
| 20260901191521 | 71 | 123 | 0.0 | 0.0 | 0.00 | 0.00 | 0.00 | 37 | 1003.0 |
| 20260901190037 | 68 | 216 | 0.0 | 0.0 | 0.00 | 0.00 | 0.00 | 39 | 1003.7 |
| 20260901184519 | 67 | 186 | 0.0 | 0.0 | 0.00 | 0.00 | 0.00 | 39 | 1003.8 |
| 20260901183026 | 65 | 77 | 0.0 | 0.0 | 0.00 | 0.00 | 0.00 | 43 | 1003.7 |
| 20260901181518 | 63 | 158 | 0.0 | 0.0 | 0.00 | 0.00 | 0.00 | 46 | 1003.7 |
| 20260901180018 | 62 | 169 | 0.0 | 0.0 | 0.00 | 0.00 | 0.00 | 48 | 1003.9 |
| 20260901174525 | 61 | 194 | 0.0 | 0.0 | 0.00 | 0.00 | 0.00 | 50 | 1003.9 |
| 20260901173016 | 61 | 225 | 0.0 | 0.0 | 0.00 | 0.00 | 0.00 | 49 | 1003.9 |
| 20260901171522 | 61 | 247 | 0.0 | 0.0 | 0.00 | 0.00 | 0.00 | 48 | 1003.8 |
| 20260901170013 | 65 | 298 | 0.0 | 0.0 | 0.00 | 0.00 | 0.00 | 40 | 1003.2 |
| 20260901164512 | 67 | 88 | 0.0 | 0.0 | 0.00 | 0.00 | 0.00 | 39 | 1002.6 |
| 20260901163017 | 67 | 252 | 0.0 | 0.0 | 0.00 | 0.00 | 0.00 | 39 | 1003.0 |
| 20260901161512 | 67 | 248 | 0.0 | 0.0 | 0.00 | 0.00 | 0.00 | 39 | 1002.9 |
| 20260901160010 | 66 | 241 | 0.0 | 0.0 | 0.00 | 0.00 | 0.00 | 40 | 1003.2 |
| 20260901154520 | 65 | 238 | 0.0 | 0.0 | 0.00 | 0.00 | 0.00 | 41 | 1003.4 |
| 20260901153007 | 64 | 242 | 0.0 | 0.0 | 0.00 | 0.00 | 0.00 | 41 | 1003.6 |
| 20260901151508 | 63 | 212 | 0.0 | 0.0 | 0.00 | 0.00 | 0.00 | 42 | 1003.4 |
| 20260901150021 | 63 | 208 | 0.0 | 0.0 | 0.00 | 0.00 | 0.00 | 43 | 1003.0 |
| 20260901144607 | 63 | 221 | 0.0 | 0.0 | 0.00 | 0.00 | 0.00 | 43 | 1003.0 |
| 20260901143006 | 63 | 195 | 0.0 | 0.0 | 0.00 | 0.00 | 0.00 | 43 | 1002.8 |
| 20260901141506 | 63 | 155 | 0.0 | 0.0 | 0.00 | 0.00 | 0.00 | 43 | 1002.7 |
| 20260901140004 | 62 | 155 | 0.0 | 0.0 | 0.00 | 0.00 | 0.00 | 42 | 1002.6 |
| 20260901134505 | 61 | 155 | 0.0 | 0.0 | 0.00 | 0.00 | 0.00 | 38 | 1002.6 |
| 20260901133001 | 62 | 155 | 0.0 | 0.0 | 0.00 | 0.00 | 0.00 | 39 | 1002.5 |
| 20260901131604 | 62 | 216 | 0.0 | 0.0 | 0.00 | 0.00 | 0.00 | 40 | 1002.5 |
| 20260901130100 | 62 | 216 | 0.0 | 0.0 | 0.00 | 0.00 | 0.00 | 39 | 1002.6 |
| 20260901124559 | 62 | 216 | 0.0 | 0.0 | 0.00 | 0.00 | 0.00 | 40 | 1002.5 |
| 20260901123058 | 62 | 216 | 0.0 | 0.0 | 0.00 | 0.00 | 0.00 | 39 | 1002.5 |
| 20260901121557 | 63 | 238 | 0.0 | 0.0 | 0.00 | 0.00 | 0.00 | 39 | 1002.4 |
| 20260901120118 | 64 | 263 | 0.0 | 0.0 | 0.00 | 0.00 | 0.00 | 36 | 1002.4 |
| 20260901114554 | 65 | 258 | 0.0 | 0.0 | 0.00 | 0.00 | 0.00 | 33 | 1002.4 |
| 20260901113058 | 66 | 179 | 0.0 | 0.0 | 0.00 | 0.00 | 0.00 | 31 | 1002.4 |
| 20260901111552 | 65 | 158 | 0.0 | 0.0 | 0.00 | 0.00 | 0.00 | 33 | 1002.6 |
| 20260901110056 | 65 | 145 | 0.0 | 0.0 | 0.00 | 0.00 | 0.00 | 33 | 1002.6 |
| 20260901104552 | 65 | 144 | 0.0 | 0.0 | 0.00 | 0.00 | 0.00 | 34 | 1002.7 |
| 20260901103046 | 65 | 173 | 0.0 | 0.0 | 0.00 | 0.00 | 0.00 | 34 | 1002.9 |
| 20260901101551 | 65 | 165 | 0.0 | 0.0 | 0.00 | 0.00 | 0.00 | 34 | 1003.1 |
| 20260901100043 | 63 | 182 | 0.0 | 0.0 | 0.00 | 0.00 | 0.00 | 37 | 1003.1 |
| 20260901094541 | 64 | 154 | 0.0 | 0.0 | 0.00 | 0.00 | 0.00 | 38 | 1003.3 |
| 20260901093048 | 64 | 180 | 0.0 | 0.0 | 0.00 | 0.00 | 0.00 | 39 | 1003.5 |
| 20260901091547 | 64 | 200 | 0.0 | 0.0 | 0.00 | 0.00 | 0.00 | 40 | 1003.5 |
| 20260901090036 | 64 | 220 | 0.0 | 0.0 | 0.00 | 0.00 | 0.00 | 40 | 1003.5 |
| 20260901084536 | 64 | 211 | 0.0 | 0.0 | 0.00 | 0.00 | 0.00 | 38 | 1003.6 |
| 20260901083030 | 65 | 221 | 0.0 | 0.0 | 0.00 | 0.00 | 0.00 | 36 | 1003.7 |
| 20260901081527 | 65 | 225 | 0.0 | 0.0 | 0.00 | 0.00 | 0.00 | 32 | 1003.6 |
| 20260901080030 | 68 | 248 | 0.0 | 0.0 | 0.00 | 0.00 | 0.00 | 29 | 1003.7 |
| 20260901074519 | 72 | 121 | 0.0 | 0.0 | 0.00 | 0.00 | 0.00 | 26 | 1003.7 |
| 20260901073020 | 72 | 123 | 0.0 | 0.0 | 0.00 | 0.00 | 0.00 | 26 | 1003.7 |
| 20260901071517 | 71 | 142 | 0.0 | 0.0 | 0.00 | 0.00 | 0.00 | 26 | 1003.8 |
| 20260901070014 | 72 | 146 | 0.0 | 0.0 | 0.00 | 0.00 | 0.00 | 26 | 1003.8 |
| 20260901064513 | 70 | 132 | 0.0 | 0.0 | 0.00 | 0.00 | 0.00 | 27 | 1003.8 |
| 20260901063011 | 71 | 130 | 0.0 | 0.0 | 0.00 | 0.00 | 0.00 | 27 | 1004.0 |
| 20260901061511 | 71 | 101 | 0.0 | 0.0 | 0.00 | 0.00 | 0.00 | 26 | 1004.0 |
| 20260901060010 | 71 | 101 | 0.0 | 0.0 | 0.00 | 0.00 | 0.00 | 26 | 1004.1 |
| 20260901054508 | 71 | 103 | 0.0 | 0.0 | 0.00 | 0.00 | 0.00 | 25 | 1004.2 |
| 20260901053010 | 71 | 139 | 0.0 | 0.0 | 0.00 | 0.00 | 0.00 | 26 | 1004.2 |
| 20260901051507 | 70 | 132 | 0.0 | 0.0 | 0.00 | 0.00 | 0.00 | 27 | 1004.3 |